Time,TemperatureF,DewpointF,PressureIn,WindDirection,WindDirectionDegrees,WindSpeedMPH,WindSpeedGustMPH,Humidity,HourlyPrecipIn,Conditions,Clouds,dailyrainin,SoftwareType,DateUTC
2013-01-18 00:00:00,62.6,53.4,30.12,NW,315,12.1,12.1,72,0.00,CLR,,0.74,WeatherDisplay:10.37,2013-01-18 05:00:00,
2013-01-18 00:01:00,62.6,53.4,30.12,NW,315,12.1,12.1,72,0.00,CLR,,0.74,WeatherDisplay:10.37,2013-01-18 05:01:00,
2013-01-18 00:02:00,62.6,53.4,30.12,NW,315,12.1,12.1,72,0.00,CLR,,0.74,WeatherDisplay:10.37,2013-01-18 05:02:00,
2013-01-18 00:03:00,62.4,53.3,30.12,NW,315,11.5,11.5,72,0.00,CLR,,0.00,WeatherDisplay:10.37,2013-01-18 05:03:00,
2013-01-18 00:08:00,62.4,52.9,30.12,NW,315,11.5,11.5,71,0.00,CLR,,0.00,WeatherDisplay:10.37,2013-01-18 05:08:00,
2013-01-18 00:13:00,62.4,52.9,30.12,WNW,292,10.4,10.4,71,0.00,CLR,,0.00,WeatherDisplay:10.37,2013-01-18 05:13:00,
2013-01-18 00:18:00,62.4,52.9,30.12,NW,315,13.8,13.8,71,0.00,CLR,,0.00,WeatherDisplay:10.37,2013-01-18 05:18:00,
2013-01-18 00:24:00,62.2,51.9,30.12,NW,315,11.5,11.5,69,0.00,CLR,,0.00,WeatherDisplay:10.37,2013-01-18 05:24:00,
2013-01-18 00:29:00,62.2,51.5,30.12,WNW,292,10.4,10.4,68,0.00,CLR,,0.00,WeatherDisplay:10.37,2013-01-18 05:29:00,
2013-01-18 00:34:00,62.2,51.5,30.12,NW,315,12.7,12.7,68,0.00,CLR,,0.00,WeatherDisplay:10.37,2013-01-18 05:34:00,
2013-01-18 00:39:00,62.1,51.4,30.12,NW,315,13.8,13.8,68,0.00,CLR,,0.00,WeatherDisplay:10.37,2013-01-18 05:39:00,
2013-01-18 00:44:00,62.1,51.0,30.12,West,270,12.7,12.7,67,0.00,CLR,,0.00,WeatherDisplay:10.37,2013-01-18 05:44:00,
2013-01-18 00:49:00,61.9,50.4,30.15,NW,315,17.5,17.5,66,0.00,CLR,,0.00,WeatherDisplay:10.37,2013-01-18 05:49:00,
2013-01-18 00:54:00,61.9,50.4,30.15,NW,315,12.7,12.7,66,0.00,CLR,,0.00,WeatherDisplay:10.37,2013-01-18 05:54:00,
2013-01-18 01:00:00,61.9,50.4,30.15,NNW,338,11.5,11.5,66,0.00,CLR,,0.00,WeatherDisplay:10.37,2013-01-18 06:00:00,
2013-01-18 01:05:00,61.7,50.6,30.15,NW,315,8.5,8.5,67,0.00,CLR,,0.00,WeatherDisplay:10.37,2013-01-18 06:05:00,
2013-01-18 01:10:00,61.7,50.6,30.15,NW,315,10.5,10.5,67,0.00,CLR,,0.00,WeatherDisplay:10.37,2013-01-18 06:10:00,
2013-01-18 01:15:00,61.5,50.1,30.15,NW,315,15.0,15.0,66,0.00,CLR,,0.00,WeatherDisplay:10.37,2013-01-18 06:15:00,
2013-01-18 01:20:00,61.5,50.5,30.15,West,270,12.3,12.3,67,0.00,CLR,,0.00,WeatherDisplay:10.37,2013-01-18 06:20:00,
2013-01-18 01:25:00,61.3,50.3,30.15,NW,315,13.2,13.2,67,0.00,CLR,,0.00,WeatherDisplay:10.37,2013-01-18 06:25:00,
2013-01-18 01:30:00,61.3,50.3,30.15,NW,315,13.8,13.8,67,0.00,CLR,,0.00,WeatherDisplay:10.37,2013-01-18 06:30:00,
2013-01-18 01:35:00,61.2,50.1,30.15,NW,315,12.7,12.7,67,0.00,CLR,,0.00,WeatherDisplay:10.37,2013-01-18 06:35:00,
2013-01-18 01:40:00,61.3,50.7,30.15,NW,315,12.8,12.8,68,0.00,CLR,,0.00,WeatherDisplay:10.37,2013-01-18 06:40:00,
2013-01-18 01:45:00,61.0,49.9,30.15,West,270,12.7,12.7,67,0.00,CLR,,0.00,WeatherDisplay:10.37,2013-01-18 06:45:00,
2013-01-18 01:51:00,61.0,49.9,30.15,WSW,248,12.7,12.7,67,0.00,CLR,,0.00,WeatherDisplay:10.37,2013-01-18 06:51:00,
2013-01-18 01:56:00,60.8,49.8,30.15,West,270,13.2,13.2,67,0.00,CLR,,0.00,WeatherDisplay:10.37,2013-01-18 06:56:00,
2013-01-18 02:01:00,60.8,49.8,30.15,West,270,13.8,13.8,67,0.00,CLR,,0.00,WeatherDisplay:10.37,2013-01-18 07:01:00,
2013-01-18 02:06:00,60.6,49.6,30.12,NW,315,9.2,9.2,67,0.00,CLR,,0.00,WeatherDisplay:10.37,2013-01-18 07:06:00,
2013-01-18 02:11:00,60.6,49.6,30.12,WNW,292,10.4,10.4,67,0.00,CLR,,0.00,WeatherDisplay:10.37,2013-01-18 07:11:00,
2013-01-18 02:16:00,60.6,49.6,30.12,NW,315,12.7,12.7,67,0.00,CLR,,0.00,WeatherDisplay:10.37,2013-01-18 07:16:00,
2013-01-18 02:21:00,60.4,49.4,30.12,NW,315,12.7,12.7,67,0.00,CLR,,0.00,WeatherDisplay:10.37,2013-01-18 07:21:00,
2013-01-18 02:26:00,60.4,49.4,30.12,NW,315,14.5,14.5,67,0.00,CLR,,0.00,WeatherDisplay:10.37,2013-01-18 07:26:00,
2013-01-18 02:32:00,60.3,49.3,30.15,NW,315,12.7,12.7,67,0.00,CLR,,0.00,WeatherDisplay:10.37,2013-01-18 07:32:00,
2013-01-18 02:37:00,60.3,49.3,30.15,WSW,248,10.4,10.4,67,0.00,CLR,,0.00,WeatherDisplay:10.37,2013-01-18 07:37:00,
2013-01-18 02:42:00,60.3,49.7,30.15,NW,315,10.0,10.0,68,0.00,CLR,,0.00,WeatherDisplay:10.37,2013-01-18 07:42:00,
2013-01-18 02:47:00,60.1,49.5,30.15,WNW,292,9.2,9.2,68,0.00,CLR,,0.00,WeatherDisplay:10.37,2013-01-18 07:47:00,
2013-01-18 02:52:00,60.1,49.5,30.15,NW,315,9.2,9.2,68,0.00,CLR,,0.00,WeatherDisplay:10.37,2013-01-18 07:52:00,
2013-01-18 02:57:00,60.1,49.9,30.15,NW,315,10.4,10.4,69,0.00,CLR,,0.00,WeatherDisplay:10.37,2013-01-18 07:57:00,
2013-01-18 03:02:00,59.9,49.3,30.15,NW,315,10.4,10.4,68,0.00,CLR,,0.00,WeatherDisplay:10.37,2013-01-18 08:02:00,
2013-01-18 03:07:00,59.9,49.7,30.15,NW,315,6.0,6.0,69,0.00,CLR,,0.00,WeatherDisplay:10.37,2013-01-18 08:07:00,
2013-01-18 03:12:00,59.7,49.5,30.15,West,270,8.1,8.1,69,0.00,CLR,,0.00,WeatherDisplay:10.37,2013-01-18 08:12:00,
2013-01-18 03:18:00,59.7,49.5,30.15,West,270,10.4,10.4,69,0.00,CLR,,0.00,WeatherDisplay:10.37,2013-01-18 08:18:00,
2013-01-18 03:23:00,59.7,49.5,30.15,NW,315,6.9,6.9,69,0.00,CLR,,0.00,WeatherDisplay:10.37,2013-01-18 08:23:00,
2013-01-18 03:28:00,59.7,49.5,30.15,NW,315,6.0,6.2,69,0.00,CLR,,0.00,WeatherDisplay:10.37,2013-01-18 08:28:00,
2013-01-18 03:33:00,59.5,49.4,30.15,West,270,8.1,8.1,69,0.00,CLR,,0.00,WeatherDisplay:10.37,2013-01-18 08:33:00,
2013-01-18 03:38:00,59.5,49.7,30.15,West,270,8.5,8.5,70,0.00,CLR,,0.00,WeatherDisplay:10.37,2013-01-18 08:38:00,
2013-01-18 03:43:00,59.4,49.6,30.15,WNW,292,10.4,10.4,70,0.00,CLR,,0.00,WeatherDisplay:10.37,2013-01-18 08:43:00,
2013-01-18 03:48:00,59.4,49.6,30.15,WNW,292,9.2,9.2,70,0.00,CLR,,0.00,WeatherDisplay:10.37,2013-01-18 08:48:00,
2013-01-18 03:53:00,59.4,49.6,30.15,NW,315,6.2,6.2,70,0.00,CLR,,0.00,WeatherDisplay:10.37,2013-01-18 08:53:00,
2013-01-18 03:59:00,59.4,49.6,30.15,WNW,292,7.8,7.8,70,0.00,CLR,,0.00,WeatherDisplay:10.37,2013-01-18 08:59:00,
2013-01-18 04:04:00,59.4,49.6,30.15,NW,315,5.8,6.2,70,0.00,CLR,,0.00,WeatherDisplay:10.37,2013-01-18 09:04:00,
2013-01-18 04:09:00,59.2,49.4,30.15,NW,315,6.2,6.2,70,0.00,CLR,,0.00,WeatherDisplay:10.37,2013-01-18 09:09:00,
2013-01-18 04:14:00,59.4,50.0,30.15,WNW,292,6.9,6.9,71,0.00,CLR,,0.00,WeatherDisplay:10.37,2013-01-18 09:14:00,
2013-01-18 04:19:00,59.4,50.0,30.15,NW,315,6.9,6.9,71,0.00,CLR,,0.00,WeatherDisplay:10.37,2013-01-18 09:19:00,
2013-01-18 04:24:00,59.4,50.0,30.15,NW,315,4.6,4.6,71,0.00,CLR,,0.00,WeatherDisplay:10.37,2013-01-18 09:24:00,
2013-01-18 04:29:00,59.2,49.8,30.15,WNW,292,4.6,4.7,71,0.00,CLR,,0.00,WeatherDisplay:10.37,2013-01-18 09:29:00,
2013-01-18 04:34:00,59.0,49.6,30.15,WNW,297,6.0,7.0,71,0.00,CLR,,0.00,WeatherDisplay:10.37,2013-01-18 09:34:00,
2013-01-18 04:40:00,59.0,49.6,30.15,NW,315,8.1,8.1,71,0.00,CLR,,0.00,WeatherDisplay:10.37,2013-01-18 09:40:00,
2013-01-18 04:45:00,59.0,49.6,30.15,NW,315,8.5,8.5,71,0.00,CLR,,0.00,WeatherDisplay:10.37,2013-01-18 09:45:00,
2013-01-18 04:50:00,58.6,49.3,30.15,NW,315,11.5,11.5,71,0.00,CLR,,0.00,WeatherDisplay:10.37,2013-01-18 09:50:00,
2013-01-18 04:55:00,58.6,48.9,30.15,NW,315,15.0,15.0,70,0.00,CLR,,0.00,WeatherDisplay:10.37,2013-01-18 09:55:00,
2013-01-18 05:00:00,58.5,48.7,30.15,NW,315,15.4,15.4,70,0.00,CLR,,0.00,WeatherDisplay:10.37,2013-01-18 10:00:00,
2013-01-18 05:06:00,58.3,48.2,30.15,NW,315,12.7,12.7,69,0.00,CLR,,0.00,WeatherDisplay:10.37,2013-01-18 10:06:00,
2013-01-18 05:11:00,58.1,48.0,30.15,WNW,292,12.1,12.1,69,0.00,CLR,,0.00,WeatherDisplay:10.37,2013-01-18 10:11:00,
2013-01-18 05:16:00,58.1,48.0,30.15,West,270,9.2,9.2,69,0.00,CLR,,0.00,WeatherDisplay:10.37,2013-01-18 10:16:00,
2013-01-18 05:21:00,58.1,47.6,30.15,NW,315,9.2,9.2,68,0.00,CLR,,0.00,WeatherDisplay:10.37,2013-01-18 10:21:00,
2013-01-18 05:26:00,57.9,47.8,30.15,NW,315,10.2,10.2,69,0.00,CLR,,0.00,WeatherDisplay:10.37,2013-01-18 10:26:00,
2013-01-18 05:32:00,57.8,47.3,30.15,NW,310,9.0,10.0,68,0.00,CLR,,0.00,WeatherDisplay:10.37,2013-01-18 10:32:00,
2013-01-18 05:37:00,57.6,47.1,30.15,NW,315,10.4,10.4,68,0.00,CLR,,0.00,WeatherDisplay:10.37,2013-01-18 10:37:00,
2013-01-18 05:42:00,57.2,46.3,30.15,NW,315,10.4,10.4,67,0.00,CLR,,0.00,WeatherDisplay:10.37,2013-01-18 10:42:00,
2013-01-18 05:47:00,57.2,46.7,30.15,West,270,10.4,10.4,68,0.00,CLR,,0.00,WeatherDisplay:10.37,2013-01-18 10:47:00,
2013-01-18 05:52:00,57.0,46.2,30.15,WNW,292,9.2,9.2,67,0.00,CLR,,0.00,WeatherDisplay:10.37,2013-01-18 10:52:00,
2013-01-18 05:57:00,56.8,46.0,30.15,WNW,292,6.9,6.9,67,0.00,CLR,,0.00,WeatherDisplay:10.37,2013-01-18 10:57:00,
2013-01-18 06:02:00,57.0,46.6,30.18,NW,315,10.4,10.4,68,0.00,CLR,,0.00,WeatherDisplay:10.37,2013-01-18 11:02:00,
2013-01-18 06:08:00,56.7,45.8,30.18,North,0,9.2,9.2,67,0.00,CLR,,0.00,WeatherDisplay:10.37,2013-01-18 11:08:00,
2013-01-18 06:13:00,56.5,45.7,30.18,NW,315,10.4,10.4,67,0.00,CLR,,0.00,WeatherDisplay:10.37,2013-01-18 11:13:00,
2013-01-18 06:18:00,56.7,46.2,30.18,North,0,6.9,6.9,68,0.00,CLR,,0.00,WeatherDisplay:10.37,2013-01-18 11:18:00,
2013-01-18 06:23:00,56.3,45.9,30.18,North,0,8.1,8.1,68,0.00,CLR,,0.00,WeatherDisplay:10.37,2013-01-18 11:23:00,
2013-01-18 06:28:00,56.1,45.7,30.18,WNW,292,10.7,10.7,68,0.00,CLR,,0.00,WeatherDisplay:10.37,2013-01-18 11:28:00,
2013-01-18 06:33:00,55.9,45.5,30.21,NW,315,9.2,9.2,68,0.00,CLR,,0.00,WeatherDisplay:10.37,2013-01-18 11:33:00,
2013-01-18 06:38:00,55.8,45.4,30.21,North,0,5.9,5.9,68,0.00,CLR,,0.00,WeatherDisplay:10.37,2013-01-18 11:38:00,
2013-01-18 06:44:00,55.9,45.9,30.21,WNW,292,9.0,9.0,69,0.00,CLR,,0.00,WeatherDisplay:10.37,2013-01-18 11:44:00,
2013-01-18 06:49:00,55.6,45.6,30.21,NW,315,9.2,9.2,69,0.00,CLR,,0.00,WeatherDisplay:10.37,2013-01-18 11:49:00,
2013-01-18 06:54:00,55.2,45.2,30.21,NNW,338,8.5,8.5,69,0.00,CLR,,0.00,WeatherDisplay:10.37,2013-01-18 11:54:00,
2013-01-18 06:59:00,55.0,45.1,30.21,West,270,9.2,9.2,69,0.00,CLR,,0.00,WeatherDisplay:10.37,2013-01-18 11:59:00,
2013-01-18 07:04:00,55.0,45.1,30.21,West,270,9.2,9.2,69,0.00,CLR,,0.00,WeatherDisplay:10.37,2013-01-18 12:04:00,
2013-01-18 07:09:00,54.5,44.2,30.21,NNW,338,9.2,9.2,68,0.00,CLR,,0.00,WeatherDisplay:10.37,2013-01-18 12:09:00,
2013-01-18 07:14:00,54.3,44.0,30.21,NW,315,11.5,11.5,68,0.00,CLR,,0.00,WeatherDisplay:10.37,2013-01-18 12:14:00,
2013-01-18 07:20:00,54.5,44.5,30.21,West,270,10.4,10.4,69,0.00,CLR,,0.00,WeatherDisplay:10.37,2013-01-18 12:20:00,
2013-01-18 07:25:00,54.3,44.4,30.21,West,270,10.4,10.4,69,0.00,CLR,,0.00,WeatherDisplay:10.37,2013-01-18 12:25:00,
2013-01-18 07:30:00,54.3,44.4,30.21,West,270,10.4,10.4,69,0.00,CLR,,0.00,WeatherDisplay:10.37,2013-01-18 12:30:00,
2013-01-18 07:35:00,54.3,44.4,30.24,NW,315,9.2,9.2,69,0.00,CLR,,0.00,WeatherDisplay:10.37,2013-01-18 12:35:00,
2013-01-18 07:40:00,54.3,44.4,30.24,NW,315,9.8,9.8,69,0.00,CLR,,0.00,WeatherDisplay:10.37,2013-01-18 12:40:00,
2013-01-18 07:46:00,54.5,44.5,30.24,West,270,10.2,10.2,69,0.00,CLR,,0.00,WeatherDisplay:10.37,2013-01-18 12:46:00,
2013-01-18 07:51:00,54.5,44.5,30.21,NW,315,8.1,8.1,69,0.00,CLR,,0.00,WeatherDisplay:10.37,2013-01-18 12:51:00,
2013-01-18 07:56:00,54.9,44.9,30.21,West,270,11.5,11.5,69,0.00,CLR,,0.00,WeatherDisplay:10.37,2013-01-18 12:56:00,
2013-01-18 08:01:00,55.2,44.8,30.21,WNW,292,8.1,8.1,68,0.00,CLR,,0.00,WeatherDisplay:10.37,2013-01-18 13:01:00,
2013-01-18 08:06:00,55.8,45.7,30.21,NW,315,8.1,8.1,69,0.00,CLR,,0.00,WeatherDisplay:10.37,2013-01-18 13:06:00,
2013-01-18 08:11:00,55.9,45.5,30.21,NW,315,8.5,8.5,68,0.00,CLR,,0.00,WeatherDisplay:10.37,2013-01-18 13:11:00,
2013-01-18 08:17:00,54.9,44.5,30.21,WNW,292,13.0,13.0,68,0.00,CLR,,0.00,WeatherDisplay:10.37,2013-01-18 13:17:00,
2013-01-18 08:22:00,55.2,44.8,30.21,NNW,338,12.7,12.7,68,0.00,CLR,,0.00,WeatherDisplay:10.37,2013-01-18 13:22:00,
2013-01-18 08:27:00,55.0,44.7,30.21,West,270,10.0,10.0,68,0.00,CLR,,0.00,WeatherDisplay:10.37,2013-01-18 13:27:00,
2013-01-18 08:32:00,54.7,44.3,30.21,NW,315,12.7,12.7,68,0.00,CLR,,0.00,WeatherDisplay:10.37,2013-01-18 13:32:00,
2013-01-18 08:37:00,54.7,44.3,30.21,West,270,12.8,12.8,68,0.00,CLR,,0.00,WeatherDisplay:10.37,2013-01-18 13:37:00,
2013-01-18 08:42:00,54.5,44.5,30.21,NW,315,12.7,12.7,69,0.00,CLR,,0.00,WeatherDisplay:10.37,2013-01-18 13:42:00,
2013-01-18 08:48:00,54.5,44.5,30.21,WNW,292,11.5,11.5,69,0.00,CLR,,0.00,WeatherDisplay:10.37,2013-01-18 13:48:00,
2013-01-18 08:53:00,54.7,45.1,30.21,NW,315,10.4,10.4,70,0.00,CLR,,0.00,WeatherDisplay:10.37,2013-01-18 13:53:00,
2013-01-18 08:58:00,54.9,44.9,30.21,West,270,10.4,10.4,69,0.00,CLR,,0.00,WeatherDisplay:10.37,2013-01-18 13:58:00,
2013-01-18 09:03:00,55.0,45.4,30.21,WNW,292,10.4,10.4,70,0.00,CLR,,0.00,WeatherDisplay:10.37,2013-01-18 14:03:00,
2013-01-18 09:08:00,55.0,45.4,30.21,WNW,292,10.4,10.4,70,0.00,CLR,,0.00,WeatherDisplay:10.37,2013-01-18 14:08:00,
2013-01-18 09:09:00,55.2,45.2,30.24,WSW,248,8.1,9.0,69,0.00,CLR,,0.00,WeatherDisplay:10.37,2013-01-18 14:09:00,
2013-01-18 09:13:00,55.2,45.2,30.24,WSW,248,8.1,9.0,69,0.00,CLR,,0.00,WeatherDisplay:10.37,2013-01-18 14:13:00,
2013-01-18 09:18:00,55.2,45.2,30.24,WSW,248,8.1,9.0,69,0.00,CLR,,0.00,WeatherDisplay:10.37,2013-01-18 14:18:00,
2013-01-18 09:23:00,55.8,45.7,30.24,WNW,292,11.5,11.5,69,0.00,CLR,,0.00,WeatherDisplay:10.37,2013-01-18 14:23:00,
2013-01-18 09:28:00,55.6,45.6,30.24,WNW,299,7.0,12.0,69,0.00,CLR,,0.00,WeatherDisplay:10.37,2013-01-18 14:28:00,
2013-01-18 09:33:00,56.1,46.1,30.24,NW,315,9.2,9.2,69,0.00,CLR,,0.00,WeatherDisplay:10.37,2013-01-18 14:33:00,
2013-01-18 09:38:00,56.3,46.3,30.24,West,270,8.1,8.1,69,0.00,CLR,,0.00,WeatherDisplay:10.37,2013-01-18 14:38:00,
2013-01-18 09:44:00,56.5,46.4,30.24,NW,315,9.2,9.2,69,0.00,CLR,,0.00,WeatherDisplay:10.37,2013-01-18 14:44:00,
2013-01-18 09:49:00,56.7,46.2,30.27,WNW,292,10.4,10.4,68,0.00,CLR,,0.00,WeatherDisplay:10.37,2013-01-18 14:49:00,
2013-01-18 09:54:00,56.7,46.2,30.27,WNW,292,10.4,10.4,68,0.00,CLR,,0.00,WeatherDisplay:10.37,2013-01-18 14:54:00,
2013-01-18 09:59:00,56.8,46.4,30.27,NW,315,8.1,8.1,68,0.00,CLR,,0.00,WeatherDisplay:10.37,2013-01-18 14:59:00,
2013-01-18 10:05:00,57.2,46.7,30.27,NW,315,9.2,9.2,68,0.00,CLR,,0.00,WeatherDisplay:10.37,2013-01-18 15:05:00,
2013-01-18 10:10:00,57.4,46.9,30.27,NW,315,9.2,9.2,68,0.00,CLR,,0.00,WeatherDisplay:10.37,2013-01-18 15:10:00,
2013-01-18 10:15:00,57.6,47.1,30.27,WNW,292,9.2,9.2,68,0.00,CLR,,0.00,WeatherDisplay:10.37,2013-01-18 15:15:00,
2013-01-18 10:20:00,57.9,47.4,30.27,SW,225,8.1,8.1,68,0.00,CLR,,0.00,WeatherDisplay:10.37,2013-01-18 15:20:00,
2013-01-18 10:25:00,58.1,47.6,30.27,NW,304,7.0,10.0,68,0.00,CLR,,0.00,WeatherDisplay:10.37,2013-01-18 15:25:00,
2013-01-18 10:30:00,58.3,47.8,30.27,NW,315,8.1,8.1,68,0.00,CLR,,0.00,WeatherDisplay:10.37,2013-01-18 15:30:00,
2013-01-18 10:35:00,58.5,47.5,30.27,West,270,6.2,6.2,67,0.00,CLR,,0.00,WeatherDisplay:10.37,2013-01-18 15:35:00,
2013-01-18 10:40:00,58.6,47.6,30.27,WNW,297,7.0,8.0,67,0.00,CLR,,0.00,WeatherDisplay:10.37,2013-01-18 15:40:00,
2013-01-18 10:45:00,58.8,47.9,30.27,West,270,5.8,5.9,67,0.00,CLR,,0.00,WeatherDisplay:10.37,2013-01-18 15:45:00,
2013-01-18 10:51:00,59.2,47.8,30.27,West,270,6.9,6.9,66,0.00,CLR,,0.00,WeatherDisplay:10.37,2013-01-18 15:51:00,
2013-01-18 10:56:00,59.4,48.4,30.27,West,270,5.9,5.9,67,0.00,CLR,,0.00,WeatherDisplay:10.37,2013-01-18 15:56:00,
2013-01-18 11:01:00,59.5,48.2,30.27,North,0,9.2,9.2,66,0.00,CLR,,0.00,WeatherDisplay:10.37,2013-01-18 16:01:00,
2013-01-18 11:06:00,59.7,47.9,30.27,West,270,8.1,8.1,65,0.00,CLR,,0.00,WeatherDisplay:10.37,2013-01-18 16:06:00,
2013-01-18 11:11:00,59.9,48.1,30.27,West,270,8.1,8.1,65,0.00,CLR,,0.00,WeatherDisplay:10.37,2013-01-18 16:11:00,
2013-01-18 11:16:00,60.1,48.7,30.27,NW,315,4.6,4.6,66,0.00,CLR,,0.00,WeatherDisplay:10.37,2013-01-18 16:16:00,
2013-01-18 11:21:00,60.3,48.0,30.27,WNW,292,5.8,5.8,64,0.00,CLR,,0.00,WeatherDisplay:10.37,2013-01-18 16:21:00,
2013-01-18 11:27:00,60.6,48.8,30.27,NNE,22,5.9,5.9,65,0.00,CLR,,0.00,WeatherDisplay:10.37,2013-01-18 16:27:00,
2013-01-18 11:32:00,61.0,49.1,30.24,NW,315,2.3,2.9,65,0.00,CLR,,0.00,WeatherDisplay:10.37,2013-01-18 16:32:00,
2013-01-18 11:37:00,61.0,49.1,30.24,NW,315,5.8,5.8,65,0.00,CLR,,0.00,WeatherDisplay:10.37,2013-01-18 16:37:00,
2013-01-18 11:43:00,61.0,48.7,30.24,NW,315,3.5,3.5,64,0.00,CLR,,0.00,WeatherDisplay:10.37,2013-01-18 16:43:00,
2013-01-18 11:48:00,61.3,49.1,30.24,North,0,6.9,6.9,64,0.00,CLR,,0.00,WeatherDisplay:10.37,2013-01-18 16:48:00,
2013-01-18 11:53:00,61.5,49.2,30.24,WNW,292,6.9,6.9,64,0.00,CLR,,0.00,WeatherDisplay:10.37,2013-01-18 16:53:00,
2013-01-18 11:58:00,61.7,49.4,30.24,WNW,292,3.5,3.5,64,0.00,CLR,,0.00,WeatherDisplay:10.37,2013-01-18 16:58:00,
2013-01-18 12:03:00,61.7,49.4,30.21,North,0,5.6,5.6,64,0.00,CLR,,0.00,WeatherDisplay:10.37,2013-01-18 17:03:00,
2013-01-18 12:09:00,62.2,50.3,30.21,North,0,2.3,2.3,65,0.00,CLR,,0.00,WeatherDisplay:10.37,2013-01-18 17:09:00,
2013-01-18 12:14:00,62.2,49.9,30.21,NW,315,4.6,4.6,64,0.00,CLR,,0.00,WeatherDisplay:10.37,2013-01-18 17:14:00,
2013-01-18 12:19:00,62.8,50.4,30.21,North,0,4.6,4.6,64,0.00,CLR,,0.00,WeatherDisplay:10.37,2013-01-18 17:19:00,
2013-01-18 12:24:00,63.0,50.6,30.21,WNW,292,6.9,6.9,64,0.00,CLR,,0.00,WeatherDisplay:10.37,2013-01-18 17:24:00,
2013-01-18 12:29:00,63.1,50.3,30.21,North,0,4.6,4.6,63,0.00,CLR,,0.00,WeatherDisplay:10.37,2013-01-18 17:29:00,
2013-01-18 12:34:00,63.5,51.1,30.21,NW,315,4.6,4.6,64,0.00,CLR,,0.00,WeatherDisplay:10.37,2013-01-18 17:34:00,
2013-01-18 12:39:00,63.7,51.3,30.21,East,90,3.5,3.5,64,0.00,CLR,,0.00,WeatherDisplay:10.37,2013-01-18 17:39:00,
2013-01-18 12:44:00,64.4,52.0,30.21,North,0,3.6,3.6,64,0.00,CLR,,0.00,WeatherDisplay:10.37,2013-01-18 17:44:00,
2013-01-18 12:49:00,64.8,52.3,30.21,East,90,3.5,3.5,64,0.00,CLR,,0.00,WeatherDisplay:10.37,2013-01-18 17:49:00,
2013-01-18 12:55:00,65.1,52.6,30.21,East,90,4.6,4.6,64,0.00,CLR,,0.00,WeatherDisplay:10.37,2013-01-18 17:55:00,
2013-01-18 13:00:00,65.5,52.5,30.21,NE,45,5.8,5.8,63,0.00,CLR,,0.00,WeatherDisplay:10.37,2013-01-18 18:00:00,
2013-01-18 13:05:00,65.7,52.7,30.21,North,0,5.8,5.8,63,0.00,CLR,,0.00,WeatherDisplay:10.37,2013-01-18 18:05:00,
2013-01-18 13:10:00,65.7,53.1,30.21,North,0,5.8,5.8,64,0.00,CLR,,0.00,WeatherDisplay:10.37,2013-01-18 18:10:00,
2013-01-18 13:15:00,66.0,53.9,30.21,NE,45,6.9,6.9,65,0.00,CLR,,0.00,WeatherDisplay:10.37,2013-01-18 18:15:00,
2013-01-18 13:21:00,66.2,54.5,30.21,North,0,8.1,8.1,66,0.00,CLR,,0.00,WeatherDisplay:10.37,2013-01-18 18:21:00,
2013-01-18 13:26:00,66.4,54.7,30.21,NNE,22,6.2,6.2,66,0.00,CLR,,0.00,WeatherDisplay:10.37,2013-01-18 18:26:00,
2013-01-18 13:31:00,66.6,55.3,30.21,North,0,8.1,8.1,67,0.00,CLR,,0.00,WeatherDisplay:10.37,2013-01-18 18:31:00,
2013-01-18 13:36:00,66.6,55.3,30.21,NE,45,8.1,8.1,67,0.00,CLR,,0.00,WeatherDisplay:10.37,2013-01-18 18:36:00,
2013-01-18 13:41:00,67.1,55.8,30.21,NW,315,5.8,5.8,67,0.00,CLR,,0.00,WeatherDisplay:10.37,2013-01-18 18:41:00,
2013-01-18 13:46:00,67.1,55.8,30.21,NE,45,6.9,6.9,67,0.00,CLR,,0.00,WeatherDisplay:10.37,2013-01-18 18:46:00,
2013-01-18 13:52:00,67.3,55.9,30.18,ENE,68,8.1,8.1,67,0.00,CLR,,0.00,WeatherDisplay:10.37,2013-01-18 18:52:00,
2013-01-18 13:57:00,67.5,56.1,30.18,North,0,8.5,8.5,67,0.00,CLR,,0.00,WeatherDisplay:10.37,2013-01-18 18:57:00,
2013-01-18 14:02:00,67.6,56.3,30.18,NE,45,5.9,5.9,67,0.00,CLR,,0.00,WeatherDisplay:10.37,2013-01-18 19:02:00,
2013-01-18 14:07:00,67.6,56.3,30.18,NNE,22,5.8,5.8,67,0.00,CLR,,0.00,WeatherDisplay:10.37,2013-01-18 19:07:00,
2013-01-18 14:12:00,67.8,56.5,30.18,NE,45,4.6,4.6,67,0.00,CLR,,0.00,WeatherDisplay:10.37,2013-01-18 19:12:00,
2013-01-18 14:17:00,67.8,56.9,30.18,NW,315,8.5,8.5,68,0.00,CLR,,0.00,WeatherDisplay:10.37,2013-01-18 19:17:00,
2013-01-18 14:22:00,68.2,57.2,30.18,North,0,8.1,8.1,68,0.00,CLR,,0.00,WeatherDisplay:10.37,2013-01-18 19:22:00,
2013-01-18 14:27:00,68.4,57.4,30.18,NE,45,9.2,9.2,68,0.00,CLR,,0.00,WeatherDisplay:10.37,2013-01-18 19:27:00,
2013-01-18 14:32:00,68.2,57.2,30.15,NW,315,10.4,10.4,68,0.00,CLR,,0.00,WeatherDisplay:10.37,2013-01-18 19:32:00,
2013-01-18 14:37:00,68.2,57.2,30.15,NNW,338,5.9,5.9,68,0.00,CLR,,0.00,WeatherDisplay:10.37,2013-01-18 19:37:00,
2013-01-18 14:43:00,68.2,57.2,30.15,NE,45,8.1,8.1,68,0.00,CLR,,0.00,WeatherDisplay:10.37,2013-01-18 19:43:00,
2013-01-18 14:48:00,68.4,57.4,30.18,East,90,6.4,6.4,68,0.00,CLR,,0.00,WeatherDisplay:10.37,2013-01-18 19:48:00,
2013-01-18 14:53:00,68.5,57.6,30.18,North,0,9.2,9.2,68,0.00,CLR,,0.00,WeatherDisplay:10.37,2013-01-18 19:53:00,
2013-01-18 14:58:00,68.9,57.9,30.18,NE,45,5.8,5.8,68,0.00,CLR,,0.00,WeatherDisplay:10.37,2013-01-18 19:58:00,
2013-01-18 15:03:00,69.1,58.1,30.18,NE,45,9.2,9.2,68,0.00,CLR,,0.00,WeatherDisplay:10.37,2013-01-18 20:03:00,
2013-01-18 15:08:00,69.3,58.2,30.18,East,90,6.9,6.9,68,0.00,CLR,,0.00,WeatherDisplay:10.37,2013-01-18 20:08:00,
2013-01-18 15:14:00,69.4,58.8,30.18,North,0,8.1,8.1,69,0.00,CLR,,0.00,WeatherDisplay:10.37,2013-01-18 20:14:00,
2013-01-18 15:19:00,69.4,58.8,30.18,NNE,22,8.1,8.1,69,0.00,CLR,,0.00,WeatherDisplay:10.37,2013-01-18 20:19:00,
2013-01-18 15:24:00,69.3,58.7,30.18,NE,45,5.9,5.9,69,0.00,CLR,,0.00,WeatherDisplay:10.37,2013-01-18 20:24:00,
2013-01-18 15:29:00,69.6,59.0,30.18,ENE,68,9.2,9.2,69,0.00,CLR,,0.00,WeatherDisplay:10.37,2013-01-18 20:29:00,
2013-01-18 15:34:00,69.8,59.2,30.15,North,0,6.9,6.9,69,0.00,CLR,,0.00,WeatherDisplay:10.37,2013-01-18 20:34:00,
2013-01-18 15:39:00,70.0,58.9,30.15,North,0,9.2,9.2,68,0.00,CLR,,0.00,WeatherDisplay:10.37,2013-01-18 20:39:00,
2013-01-18 15:45:00,70.2,59.1,30.15,East,90,8.1,8.1,68,0.00,CLR,,0.00,WeatherDisplay:10.37,2013-01-18 20:45:00,
2013-01-18 15:50:00,70.2,59.1,30.18,North,0,8.5,8.5,68,0.00,CLR,,0.00,WeatherDisplay:10.37,2013-01-18 20:50:00,
2013-01-18 15:55:00,70.3,59.3,30.18,NW,315,9.2,9.2,68,0.00,CLR,,0.00,WeatherDisplay:10.37,2013-01-18 20:55:00,
2013-01-18 16:01:00,70.2,59.1,30.18,NNE,22,5.8,5.8,68,0.00,CLR,,0.00,WeatherDisplay:10.37,2013-01-18 21:01:00,
2013-01-18 16:06:00,70.2,59.1,30.18,NNE,22,5.8,5.8,68,0.00,CLR,,0.00,WeatherDisplay:10.37,2013-01-18 21:06:00,
2013-01-18 16:11:00,70.0,58.9,30.18,North,0,5.8,5.8,68,0.00,CLR,,0.00,WeatherDisplay:10.37,2013-01-18 21:11:00,
2013-01-18 16:16:00,70.0,58.9,30.18,North,0,5.8,5.8,68,0.00,CLR,,0.00,WeatherDisplay:10.37,2013-01-18 21:16:00,
2013-01-18 16:23:00,70.0,58.9,30.21,North,0,9.8,9.8,68,0.00,CLR,,0.00,WeatherDisplay:10.37,2013-01-18 21:23:00,
2013-01-18 16:29:00,70.0,58.9,30.21,North,0,5.8,6.2,68,0.00,CLR,,0.00,WeatherDisplay:10.37,2013-01-18 21:29:00,
2013-01-18 16:34:00,70.2,59.1,30.21,NNE,22,9.2,9.2,68,0.00,CLR,,0.00,WeatherDisplay:10.37,2013-01-18 21:34:00,
2013-01-18 16:39:00,70.2,59.1,30.18,NE,45,9.2,9.2,68,0.00,CLR,,0.00,WeatherDisplay:10.37,2013-01-18 21:39:00,
2013-01-18 16:44:00,70.0,58.1,30.18,East,90,9.2,9.2,66,0.00,CLR,,0.00,WeatherDisplay:10.37,2013-01-18 21:44:00,
2013-01-18 16:49:00,70.0,58.1,30.18,NNE,22,10.4,10.4,66,0.00,CLR,,0.00,WeatherDisplay:10.37,2013-01-18 21:49:00,
2013-01-18 16:54:00,70.0,58.1,30.18,NNE,22,10.4,10.4,66,0.00,CLR,,0.00,WeatherDisplay:10.37,2013-01-18 21:54:00,
2013-01-18 16:59:00,70.0,58.1,30.18,WNW,292,10.4,10.4,66,0.00,CLR,,0.00,WeatherDisplay:10.37,2013-01-18 21:59:00,
2013-01-18 17:04:00,70.0,58.1,30.18,WNW,292,10.4,10.4,66,0.00,CLR,,0.00,WeatherDisplay:10.37,2013-01-18 22:04:00,
2013-01-18 17:09:00,70.0,57.7,30.21,NE,45,10.4,10.4,65,0.00,CLR,,0.00,WeatherDisplay:10.37,2013-01-18 22:09:00,
2013-01-18 17:15:00,70.2,57.8,30.21,NE,45,7.4,7.4,65,0.00,CLR,,0.00,WeatherDisplay:10.37,2013-01-18 22:15:00,
2013-01-18 17:17:00,70.2,57.8,30.21,NE,45,7.4,7.4,65,0.00,CLR,,0.00,WeatherDisplay:10.37,2013-01-18 22:17:00,
2013-01-18 17:20:00,70.2,57.8,30.21,NE,45,7.4,7.4,65,0.00,CLR,,0.00,WeatherDisplay:10.37,2013-01-18 22:20:00,
2013-01-18 17:25:00,70.2,57.8,30.21,NE,45,7.4,7.4,65,0.00,CLR,,0.00,WeatherDisplay:10.37,2013-01-18 22:25:00,
2013-01-18 17:42:00,70.0,56.8,30.21,North,0,12.5,12.5,63,0.00,CLR,,0.00,WeatherDisplay:10.37,2013-01-18 22:42:00,
2013-01-18 17:47:00,70.0,56.8,30.21,ENE,68,6.9,6.9,63,0.00,CLR,,0.00,WeatherDisplay:10.37,2013-01-18 22:47:00,
2013-01-18 17:52:00,70.0,56.8,30.21,ENE,68,6.9,6.9,63,0.00,CLR,,0.00,WeatherDisplay:10.37,2013-01-18 22:52:00,
2013-01-18 18:00:00,70.2,56.1,30.21,NNE,22,12.7,12.7,61,0.00,CLR,,0.00,WeatherDisplay:10.37,2013-01-18 23:00:00,
2013-01-18 18:05:00,70.2,56.1,30.21,ENE,68,12.7,12.7,61,0.00,CLR,,0.00,WeatherDisplay:10.37,2013-01-18 23:05:00,
2013-01-18 18:10:00,70.2,56.1,30.21,ENE,68,12.7,12.7,61,0.00,CLR,,0.00,WeatherDisplay:10.37,2013-01-18 23:10:00,
2013-01-18 18:11:00,70.0,55.5,30.21,ENE,68,12.7,12.7,60,0.00,CLR,,0.00,WeatherDisplay:10.37,2013-01-18 23:11:00,
2013-01-18 18:15:00,70.0,55.5,30.21,ENE,68,12.7,12.7,60,0.00,CLR,,0.00,WeatherDisplay:10.37,2013-01-18 23:15:00,
2013-01-18 18:20:00,70.0,55.5,30.21,ENE,68,12.7,12.7,60,0.00,CLR,,0.00,WeatherDisplay:10.37,2013-01-18 23:20:00,
2013-01-18 18:32:00,70.2,56.1,30.21,ESE,112,9.2,9.2,61,0.00,CLR,,0.00,WeatherDisplay:10.37,2013-01-18 23:32:00,
2013-01-18 18:37:00,70.2,55.6,30.21,SE,135,12.3,12.3,60,0.00,CLR,,0.00,WeatherDisplay:10.37,2013-01-18 23:37:00,
2013-01-18 18:43:00,70.2,55.2,30.21,NE,45,12.7,12.7,59,0.00,CLR,,0.00,WeatherDisplay:10.37,2013-01-18 23:43:00,
2013-01-18 18:48:00,70.2,55.2,30.21,NE,45,12.7,12.7,59,0.00,CLR,,0.00,WeatherDisplay:10.37,2013-01-18 23:48:00,
2013-01-18 18:53:00,70.2,55.2,30.21,NE,45,12.7,12.7,59,0.00,CLR,,0.00,WeatherDisplay:10.37,2013-01-18 23:53:00,
2013-01-18 18:58:00,70.3,55.3,30.21,SE,135,11.5,11.5,59,0.00,CLR,,0.00,WeatherDisplay:10.37,2013-01-18 23:58:00,
2013-01-18 19:03:00,70.3,55.3,30.21,SE,135,11.5,11.5,59,0.00,CLR,,0.00,WeatherDisplay:10.37,2013-01-19 00:03:00,
2013-01-18 19:08:00,70.3,55.3,30.21,SE,135,11.5,11.5,59,0.00,CLR,,0.00,WeatherDisplay:10.37,2013-01-19 00:08:00,
2013-01-18 19:13:00,70.3,55.3,30.21,East,90,11.5,11.5,59,0.00,CLR,,0.00,WeatherDisplay:10.37,2013-01-19 00:13:00,
2013-01-18 19:19:00,70.3,54.9,30.21,ENE,68,13.8,13.8,58,0.00,CLR,,0.00,WeatherDisplay:10.37,2013-01-19 00:19:00,
2013-01-18 19:24:00,70.3,53.9,30.21,ENE,68,10.0,10.0,56,0.00,CLR,,0.00,WeatherDisplay:10.37,2013-01-19 00:24:00,
2013-01-18 19:29:00,70.3,53.9,30.21,ENE,68,10.4,10.4,56,0.00,CLR,,0.00,WeatherDisplay:10.37,2013-01-19 00:29:00,
2013-01-18 19:34:00,70.2,53.7,30.21,NE,45,9.8,9.8,56,0.00,CLR,,0.00,WeatherDisplay:10.37,2013-01-19 00:34:00,
2013-01-18 19:40:00,70.2,54.2,30.21,NNE,22,10.2,10.2,57,0.00,CLR,,0.00,WeatherDisplay:10.37,2013-01-19 00:40:00,
2013-01-18 19:45:00,70.2,53.7,30.21,ESE,112,5.8,5.8,56,0.00,CLR,,0.00,WeatherDisplay:10.37,2013-01-19 00:45:00,
2013-01-18 19:50:00,70.3,53.9,30.18,ENE,68,5.8,6.4,56,0.00,CLR,,0.00,WeatherDisplay:10.37,2013-01-19 00:50:00,
2013-01-18 19:55:00,70.2,54.7,30.18,SE,135,10.4,10.4,58,0.00,CLR,,0.00,WeatherDisplay:10.37,2013-01-19 00:55:00,
2013-01-18 20:01:00,70.2,54.2,30.18,NE,45,8.1,8.1,57,0.00,CLR,,0.00,WeatherDisplay:10.37,2013-01-19 01:01:00,
2013-01-18 20:06:00,70.2,55.2,30.21,North,0,8.1,8.1,59,0.00,CLR,,0.00,WeatherDisplay:10.37,2013-01-19 01:06:00,
2013-01-18 20:11:00,70.2,54.7,30.21,NE,45,11.5,11.5,58,0.00,CLR,,0.00,WeatherDisplay:10.37,2013-01-19 01:11:00,
2013-01-18 20:16:00,70.3,55.3,30.21,East,90,13.8,13.8,59,0.00,CLR,,0.00,WeatherDisplay:10.37,2013-01-19 01:16:00,
2013-01-18 20:21:00,70.3,55.3,30.21,NNE,22,13.8,13.8,59,0.00,CLR,,0.00,WeatherDisplay:10.37,2013-01-19 01:21:00,
2013-01-18 20:26:00,70.2,54.7,30.21,North,0,9.2,9.2,58,0.00,CLR,,0.00,WeatherDisplay:10.37,2013-01-19 01:26:00,
2013-01-18 20:31:00,70.2,55.2,30.21,ENE,68,11.5,11.5,59,0.00,CLR,,0.00,WeatherDisplay:10.37,2013-01-19 01:31:00,
2013-01-18 20:37:00,70.2,54.7,30.21,NE,45,11.5,11.5,58,0.00,CLR,,0.00,WeatherDisplay:10.37,2013-01-19 01:37:00,
2013-01-18 20:42:00,70.2,55.2,30.21,East,90,13.0,13.0,59,0.00,CLR,,0.00,WeatherDisplay:10.37,2013-01-19 01:42:00,
2013-01-18 20:47:00,70.2,55.2,30.21,NE,45,10.4,10.4,59,0.00,CLR,,0.00,WeatherDisplay:10.37,2013-01-19 01:47:00,
2013-01-18 20:52:00,70.3,55.3,30.21,East,90,10.4,10.4,59,0.00,CLR,,0.00,WeatherDisplay:10.37,2013-01-19 01:52:00,
2013-01-18 20:57:00,70.3,54.4,30.21,ENE,68,11.5,11.5,57,0.00,CLR,,0.00,WeatherDisplay:10.37,2013-01-19 01:57:00,
2013-01-18 21:02:00,70.3,55.3,30.18,NNE,22,16.1,16.1,59,0.00,CLR,,0.00,WeatherDisplay:10.37,2013-01-19 02:02:00,
2013-01-18 21:07:00,70.3,55.8,30.18,NE,45,9.2,9.2,60,0.00,CLR,,0.00,WeatherDisplay:10.37,2013-01-19 02:07:00,
2013-01-18 21:13:00,70.3,55.8,30.18,East,90,10.0,10.0,60,0.00,CLR,,0.00,WeatherDisplay:10.37,2013-01-19 02:13:00,
2013-01-18 21:18:00,70.3,55.3,30.18,NE,45,10.4,10.4,59,0.00,CLR,,0.00,WeatherDisplay:10.37,2013-01-19 02:18:00,
2013-01-18 21:23:00,70.3,55.3,30.21,North,0,10.4,10.4,59,0.00,CLR,,0.00,WeatherDisplay:10.37,2013-01-19 02:23:00,
2013-01-18 21:28:00,70.3,55.8,30.21,North,0,11.5,11.5,60,0.00,CLR,,0.00,WeatherDisplay:10.37,2013-01-19 02:28:00,
2013-01-18 21:33:00,70.3,55.8,30.18,NW,315,10.4,10.4,60,0.00,CLR,,0.00,WeatherDisplay:10.37,2013-01-19 02:33:00,
2013-01-18 21:39:00,70.3,55.3,30.18,East,90,11.5,11.5,59,0.00,CLR,,0.00,WeatherDisplay:10.37,2013-01-19 02:39:00,
2013-01-18 21:44:00,70.3,55.3,30.18,East,90,11.5,11.5,59,0.00,CLR,,0.00,WeatherDisplay:10.37,2013-01-19 02:44:00,
2013-01-18 21:49:00,70.3,54.9,30.21,NE,45,11.5,11.5,58,0.00,CLR,,0.00,WeatherDisplay:10.37,2013-01-19 02:49:00,
2013-01-18 21:54:00,70.3,54.9,30.21,NNE,22,11.5,11.5,58,0.00,CLR,,0.00,WeatherDisplay:10.37,2013-01-19 02:54:00,
2013-01-18 21:59:00,70.5,54.5,30.21,ENE,68,11.5,11.5,57,0.00,CLR,,0.00,WeatherDisplay:10.37,2013-01-19 02:59:00,
2013-01-18 22:05:00,70.5,54.1,30.21,ENE,68,8.1,8.1,56,0.00,CLR,,0.00,WeatherDisplay:10.37,2013-01-19 03:05:00,
2013-01-18 22:10:00,70.5,54.1,30.21,NE,45,9.2,9.2,56,0.00,CLR,,0.00,WeatherDisplay:10.37,2013-01-19 03:10:00,
2013-01-18 22:15:00,70.5,54.5,30.21,East,90,12.7,12.7,57,0.00,CLR,,0.00,WeatherDisplay:10.37,2013-01-19 03:15:00,
2013-01-18 22:20:00,70.5,54.5,30.21,ENE,68,10.5,10.5,57,0.00,CLR,,0.00,WeatherDisplay:10.37,2013-01-19 03:20:00,
2013-01-18 22:25:00,70.5,54.5,30.21,ENE,69,6.0,12.0,57,0.00,CLR,,0.00,WeatherDisplay:10.37,2013-01-19 03:25:00,
2013-01-18 22:30:00,70.5,54.5,30.21,East,90,12.1,12.1,57,0.00,CLR,,0.00,WeatherDisplay:10.37,2013-01-19 03:30:00,
2013-01-18 22:36:00,70.5,54.1,30.21,NE,45,12.1,12.1,56,0.00,CLR,,0.00,WeatherDisplay:10.37,2013-01-19 03:36:00,
2013-01-18 22:41:00,70.3,54.4,30.21,South,180,11.5,11.5,57,0.00,CLR,,0.00,WeatherDisplay:10.37,2013-01-19 03:41:00,
2013-01-18 22:47:00,70.3,54.9,30.21,East,90,11.5,11.5,58,0.00,CLR,,0.00,WeatherDisplay:10.37,2013-01-19 03:47:00,
2013-01-18 22:52:00,70.3,54.9,30.21,ENE,62,6.0,12.0,58,0.00,CLR,,0.00,WeatherDisplay:10.37,2013-01-19 03:52:00,
2013-01-18 22:57:00,70.3,54.9,30.21,NE,45,10.4,10.4,58,0.00,CLR,,0.00,WeatherDisplay:10.37,2013-01-19 03:57:00,
2013-01-18 23:02:00,70.3,54.9,30.21,ENE,68,10.4,10.4,58,0.00,CLR,,0.00,WeatherDisplay:10.37,2013-01-19 04:02:00,
2013-01-18 23:07:00,70.5,55.5,30.21,ENE,68,10.0,10.0,59,0.00,CLR,,0.00,WeatherDisplay:10.37,2013-01-19 04:07:00,
2013-01-18 23:13:00,70.3,55.3,30.21,East,90,10.4,10.4,59,0.00,CLR,,0.00,WeatherDisplay:10.37,2013-01-19 04:13:00,
2013-01-18 23:18:00,70.3,54.9,30.18,East,90,10.5,10.5,58,0.00,CLR,,0.00,WeatherDisplay:10.37,2013-01-19 04:18:00,
2013-01-18 23:23:00,70.3,54.9,30.18,NNE,22,5.8,5.8,58,0.00,CLR,,0.00,WeatherDisplay:10.37,2013-01-19 04:23:00,
2013-01-18 23:28:00,70.3,55.3,30.18,ESE,112,9.2,9.2,59,0.00,CLR,,0.00,WeatherDisplay:10.37,2013-01-19 04:28:00,
2013-01-18 23:33:00,70.3,55.3,30.21,East,90,9.2,9.2,59,0.00,CLR,,0.00,WeatherDisplay:10.37,2013-01-19 04:33:00,
2013-01-18 23:38:00,70.5,56.0,30.21,NE,45,9.2,9.2,60,0.00,CLR,,0.00,WeatherDisplay:10.37,2013-01-19 04:38:00,
2013-01-18 23:43:00,70.3,55.8,30.21,NE,45,12.7,12.7,60,0.00,CLR,,0.00,WeatherDisplay:10.37,2013-01-19 04:43:00,
2013-01-18 23:48:00,70.3,56.2,30.21,ENE,68,8.1,8.1,61,0.00,CLR,,0.00,WeatherDisplay:10.37,2013-01-19 04:48:00,
2013-01-18 23:53:00,70.3,56.2,30.21,SE,135,11.5,11.5,61,0.00,CLR,,0.00,WeatherDisplay:10.37,2013-01-19 04:53:00,
2013-01-18 23:59:00,70.3,55.8,30.21,East,90,9.2,9.2,60,0.00,CLR,,0.00,WeatherDisplay:10.37,2013-01-19 04:59:00,